Regional Weather Roundup
Issued by NWS Charleston, SC

Current Version | Previous Version | Text Only | Print | Product List | Glossary Off
Versions: 1 2 3 4 5 6 7 8 9 10 11 12 13 14 15 16 17 18 19 20 21 22 23 24 25 26 27 28 29 30 31 32 33 34 35 36 37 38 39 40 41 42 43 44 45 46 47 48 49 50

000
ASUS42 KCHS 212227
RWRCHS

REGIONAL WEATHER ROUNDUP
NATIONAL WEATHER SERVICE CHARLESTON SC
600 PM EDT SAT OCT 21 2017

NOTE: "FAIR" INDICATES FEW OR NO CLOUDS BELOW 12,000 FEET WITH NO
SIGNIFICANT WEATHER AND/OR OBSTRUCTIONS TO VISIBILITY.

NOT ALL STATIONS ARE QUALITY CONTROLLED. USE DATA WITH CAUTION...
ESPECIALLY DEWPOINT OBSERVATIONS.

SCZ027-030-031-034>040-042>050-212300-
...SOUTHEAST SOUTH CAROLINA...

CITY           SKY/WX    TMP DP  RH WIND       PRES   REMARKS
N CHARLESTON   MOCLDY    75  63  66 E10       30.26S
WATERFRONT PRK NOT AVBL
JOHNS ISLAND   FAIR      73  66  78 NE10      30.27S
PINOPOLIS        N/A     75  68  78 VRB2      30.20R
MONCKS CORNER  FAIR      73  63  68 E3        30.28R
SUMMERVILLE    MOCLDY    75  63  64 CALM      30.28R
BEAUFORT MCAS  PTCLDY    76  67  73 MISG      30.25F
BEAUFORT ARPT  FAIR      72  64  78 E13       30.26R
HILTON HEAD IS PTCLDY    73  66  78 MISG      30.26S
WALTERBORO     PTCLDY    73  63  68 E5        30.27S
ALLENDALE        N/A     77  59  53 CALM        N/A

...SOUTHERN MIDLANDS AND PEE DEE...

CITY           SKY/WX    TMP DP  RH WIND       PRES   REMARKS
GEORGETOWN     FAIR      70  66  88 E3        30.30R
KINGSTREE      FAIR      70  61  73 CALM      30.28S
ORANGEBURG     CLOUDY    76  46  34 NE6       30.27R
BARNWELL         N/A     75  55  50 CALM      30.26S
AIKEN          FAIR      72  45  37 E5        30.30S
MANNING        FAIR      72  61  68 MISG      30.28S
COLUMBIA       CLOUDY    78  56  46 SE7       30.27R
SUMTER         CLOUDY    78  52  41 E6        30.26R
FLORENCE       CLOUDY    75  54  47 SE5       30.29R
MYRTLE BEACH   CLEAR     72  63  73 E5        30.30S
N MYRTLE BEACH CLEAR     74  62  66 E7        30.29R

$$

GAZ063-065-086>088-099>101-113>116-118-119-134>141-150-212300-
...SOUTHEAST GEORGIA...

CITY           SKY/WX    TMP DP  RH WIND       PRES   REMARKS
SAVANNAH ARPT  MOCLDY    78  63  59 E13       30.25R
HUNTER AAF     PTCLDY    76  65  67 E9        30.22S
FORT STEWART   PTCLDY    76  63  63 E8        30.22S
STATESBORO     PTCLDY    77  57  50 E3        30.25S
SYLVANIA       CLOUDY    76  64  66 SE3       30.26S
CLAXTON        FAIR      78  64  62 E7        30.24R

...CSRA...CENTRAL AND FAR SOUTHEAST GEORGIA...

CITY           SKY/WX    TMP DP  RH WIND       PRES   REMARKS
THOMSON        PTCLDY    71  55  56 CALM      30.32R
AUGUSTA-BUSH   CLOUDY    74  61  63 CALM      30.25R
AUGUSTA-DANIEL CLOUDY    78  48  34 E6        30.27R
SWAINSBORO     FAIR      77  57  50 E5        30.25S
VIDALIA        MOCLDY    77  63  61 E5        30.23S
EASTMAN        FAIR      79  46  31 E5        30.24S
HAZLEHURST     FAIR      79  54  41 SE7       30.21R
ALMA           PTCLDY    79  63  57 E7        30.21R
WAYCROSS       PTCLDY    79  63  57 E15       30.22R
JESUP          NOT AVBL
BAXLEY         FAIR      75  63  64 SE6       30.22R
BRUNSWICK      CLEAR     73  66  78 NE15      30.23S
SAINT SIMONS   CLEAR     77  70  79 NE13      30.21S

$$

SCZ027-028-034-036>038-045-046-048>050-GAZ119-141-212300-
...LAKE AND SUPPLEMENTAL COASTAL OBSERVATIONS...

STATION/POSITION TIME  TEMP    WIND        PRES    WAVE   SWELL
                       AIR SEA DIR/SP/G            HT/PER HT/PER/DIR
                 (UTC) (F)     (DEG/KT/KT) (MB)    (FT/S) (FT/S/D)
WINYAH BAY       2145   73      80/  8     1025.0S
LAKE MURRAY      2220   76      CALM  /  5 1024.4R
ACE BASIN NERRS  2145   77      70/  3     1025.0S
FORT PULASKI     2200   74 74   70/ 12/ 15 1024.8
SAPELO ISLAND    NOT AVBL

$$

ANZ835-935-AMZ111-154-330-350-352-354-370-450-454-472-212300-
...C-MAN AND BUOY OBSERVATIONS...

STATION/POSITION TIME  TEMP    WIND        PRES    WAVE   SWELL
                       AIR SEA DIR/SP/G            HT/PER HT/PER/DIR
                 (UTC) (F)     (DEG/KT/KT) (MB)    (FT/S) (FT/S/D)
BUOY 41004       2210   78 81   70/ 14/ 21 1024.1
BUOY 41008       2150   78 77   80/  8/ 10 1023.0S   5/ 5   5/ 70/ 5
FOLLY BEACH CMAN 2200   73      60/ 14/ 16 1025.5F
CAPERS NEARSHORE 2208   71 73   60/ 14/ 17 1024.7R
FRIPP NEARSHORE  2208   75      60/ 16/ 19   N/A


STATION/POSITION TIME  TEMP    WIND        PRES    WAVE   SWELL
                       AIR SEA DIR/SP/G            HT/PER HT/PER/DIR
                 (UTC) (F)     (DEG/KT/KT) (MB)    (FT/S) (FT/S/D)
5E ST. MARYS GA  2200      77                N/A     4/ 7
FRYING PAN BUOY  2210   76 76   60/ 12/ 14 1025.3
BUOY 41025       2150   73 81   10/  8/ 10 1026.3R   3/ 8   3/110/ 8
CAPE LOOKOUT NC  2200   72      50/ 10/ 11 1026.2R
BUOY 41002       2150   77 80   80/ 12/ 14 1024.3R   4/ 8   3/100/ 8
BUOY 41010       NOT AVBL
ST AUGUSTINE FL  2200   79 78   80/ 14/ 16 1022.1R


$$




USA.gov is the U.S. government's official web portal to all federal, state and local government web resources and services.